N4OOJ-13 Weather Reports


time (UTC)temp
C
wind
direction
speed
KPH
gust
KPH
rain 1hr
cm
rain 24hr
cm
rain mn
cm
humidity
%
barometer
mb
20260506004019 18 0.0 0.0 0.00 0.00 0.00 74 1017.8
20260506003026 19 94 3.2 4.8 0.00 0.00 0.00 73 1017.9
20260506002025 20 91 3.2 4.8 0.00 0.00 0.00 71 1017.9
20260506001025 20 107 3.2 6.4 0.00 0.00 0.00 70 1017.9
20260506000020 21 223 1.6 6.4 0.00 0.00 0.00 68 1017.9
20260505235020 21 144 3.2 4.8 0.00 0.00 0.00 65 1017.9
20260505234026 22 268 1.6 3.2 0.00 0.00 0.00 62 1017.9
20260505233020 23 227 4.8 8.0 0.00 0.00 0.00 59 1017.5
20260505232021 25 325 4.8 9.7 0.00 0.00 0.00 55 1017.6
20260505231020 25 209 3.2 4.8 0.00 0.00 0.00 53 1017.5
20260505230020 25 215 4.8 9.7 0.00 0.00 0.00 53 1017.5
20260505225032 25 118 4.8 12.9 0.00 0.00 0.00 52 1017.6
20260505224027 26 102 4.8 8.0 0.00 0.00 0.00 51 1017.6
20260505223032 26 118 6.4 11.3 0.00 0.00 0.00 51 1017.5
20260505222028 26 120 4.8 8.0 0.00 0.00 0.00 49 1017.5
20260505221028 26 64 4.8 9.7 0.00 0.00 0.00 48 1017.7
20260505220029 26 72 6.4 11.3 0.00 0.00 0.00 48 1017.6
20260505215024 26 102 6.4 9.7 0.00 0.00 0.00 49 1017.5
20260505214018 26 110 6.4 9.7 0.00 0.00 0.00 48 1017.7
20260505213042 26 176 3.2 9.7 0.00 0.00 0.00 50 1017.6
20260505212026 26 64 8.0 12.9 0.00 0.00 0.00 49 1017.7
20260505211016 26 312 4.8 9.7 0.00 0.00 0.00 48 1017.7
20260505210033 27 280 6.4 16.1 0.00 0.00 0.00 46 1017.7
20260505205033 27 69 6.4 11.3 0.00 0.00 0.00 44 1017.5
20260505204033 27 75 6.4 14.5 0.00 0.00 0.00 45 1017.6
20260505203032 27 155 6.4 9.7 0.00 0.00 0.00 46 1017.6
20260505202021 27 19 8.0 11.3 0.00 0.00 0.00 45 1017.6
20260505201016 28 210 6.4 9.7 0.00 0.00 0.00 44 1017.9
20260505200023 27 204 4.8 8.0 0.00 0.00 0.00 44 1018.0
20260505195017 27 81 9.7 14.5 0.00 0.00 0.00 44 1017.9
20260505194018 28 158 6.4 17.7 0.00 0.00 0.00 45 1018.0
20260505193031 28 84 4.8 8.0 0.00 0.00 0.00 45 1018.5
20260505192026 28 78 8.0 11.3 0.00 0.00 0.00 42 1018.8
20260505191021 30 272 6.4 11.3 0.00 0.00 0.00 40 1018.8
20260505190016 29 75 4.8 11.3 0.00 0.00 0.00 43 1018.9
20260505185029 30 23 6.4 9.7 0.00 0.00 0.00 42 1018.9
20260505184029 28 5 6.4 9.7 0.00 0.00 0.00 44 1018.9
20260505183029 30 210 8.0 14.5 0.00 0.00 0.00 42 1018.8
20260505182019 28 183 6.4 11.3 0.00 0.00 0.00 45 1018.5
20260505181026 27 15 4.8 11.3 0.00 0.00 0.00 48 1018.7
20260505180021 27 87 4.8 16.1 0.00 0.00 0.00 49 1018.7
20260505175015 27 83 6.4 11.3 0.00 0.00 0.00 45 1018.6
20260505174022 27 74 4.8 9.7 0.00 0.00 0.00 48 1018.7
20260505173016 26 77 4.8 8.0 0.00 0.00 0.00 49 1018.8
20260505172016 28 265 6.4 11.3 0.00 0.00 0.00 45 1019.0
20260505171016 26 141 4.8 9.7 0.00 0.00 0.00 50 1019.3
20260505170028 26 72 4.8 8.0 0.00 0.00 0.00 49 1019.3
20260505165023 27 29 4.8 11.3 0.00 0.00 0.00 49 1019.3
20260505164021 27 226 4.8 6.4 0.00 0.00 0.00 48 1019.7
20260505163027 27 60 9.7 17.7 0.00 0.00 0.00 46 1019.7
20260505162021 27 4 4.8 8.0 0.00 0.00 0.00 47 1019.7
20260505161017 27 272 4.8 12.9 0.00 0.00 0.00 49 1020.0
20260505153027 26 237 3.2 6.4 0.00 0.00 0.00 52 1019.9
20260505152022 26 268 4.8 9.7 0.00 0.00 0.00 50 1019.9
20260505151021 26 261 4.8 9.7 0.00 0.00 0.00 50 1019.9
20260505125019 21 0.0 0.0 0.00 0.00 0.00 76 1019.7
20260505124032 20 0.0 0.0 0.00 0.00 0.00 77 1019.8
20260505123031 18 0.0 0.0 0.00 0.00 0.00 79 1019.9
20260505122024 17 0.0 0.0 0.00 0.00 0.00 82 1019.9
20260505121023 15 0.0 0.0 0.00 0.00 0.00 87 1019.9
20260505120017 13 0.0 0.0 0.00 0.00 0.00 91 1019.8
20260505115017 12 0.0 0.0 0.00 0.00 0.00 98 1019.8
20260505114017 11 0.0 0.0 0.00 0.00 0.00 99 1019.7
20260505113030 9 0.0 0.0 0.00 0.00 0.00 99 1019.5
20260505112025 8 68 0.0 4.8 0.00 0.00 0.00 99 1019.5
20260505111020 8 0.0 0.0 0.00 0.00 0.00 99 1019.3
20260505102015 8 0.0 0.0 0.00 0.00 0.00 99 1018.7
20260505101033 8 0.0 0.0 0.00 0.00 0.00 99 1018.7
20260505100019 8 0.0 0.0 0.00 0.00 0.00 99 1018.7
20260505095018 9 0.0 0.0 0.00 0.00 0.00 99 1018.6
20260505094025 9 0.0 0.0 0.00 0.00 0.00 99 1018.5
20260505093018 9 0.0 0.0 0.00 0.00 0.00 99 1018.3
20260505092019 9 0.0 0.0 0.00 0.00 0.00 99 1018.4
20260505091019 9 0.0 0.0 0.00 0.00 0.00 99 1018.4
20260505090019 9 0.0 0.0 0.00 0.00 0.00 99 1018.4
20260505085027 9 0.0 0.0 0.00 0.00 0.00 99 1018.3
20260505084021 9 0.0 0.0 0.00 0.00 0.00 99 1018.1
20260505083020 10 0.0 0.0 0.00 0.00 0.00 99 1018.1
20260505082032 10 0.0 0.0 0.00 0.00 0.00 99 1018.0
20260505081030 10 0.0 0.0 0.00 0.00 0.00 99 1018.0
20260505080024 10 0.0 0.0 0.00 0.00 0.00 99 1018.0
20260505075018 10 0.0 0.0 0.00 0.00 0.00 99 1017.8
20260505074030 10 0.0 0.0 0.00 0.00 0.00 99 1017.9
20260505073025 10 0.0 0.0 0.00 0.00 0.00 99 1017.9
20260505072020 10 0.0 0.0 0.00 0.00 0.00 99 1017.9
20260505071033 10 113 0.0 1.6 0.00 0.00 0.00 99 1017.9
20260505070033 10 0.0 1.6 0.00 0.00 0.00 99 1018.0
20260505065028 10 0.0 0.0 0.00 0.00 0.00 99 1018.0
20260505064028 10 0.0 0.0 0.00 0.00 0.00 99 1018.1
20260505063026 10 0.0 0.0 0.00 0.00 0.00 99 1018.2
20260505062025 10 0.0 0.0 0.00 0.00 0.00 99 1018.4
20260505061019 10 0.0 0.0 0.00 0.00 0.00 99 1018.6
20260505060027 10 0.0 0.0 0.00 0.00 0.00 99 1018.6
20260505055027 10 0.0 0.0 0.00 0.00 0.00 98 1018.7
20260505054026 11 0.0 0.0 0.00 0.00 0.00 98 1018.8
20260505053021 11 0.0 0.0 0.00 0.00 0.00 98 1019.0
20260505052033 11 0.0 0.0 0.00 0.00 0.00 97 1019.1
20260505051033 11 0.0 0.0 0.00 0.00 0.00 97 1019.1
20260505041032 12 158 0.0 3.2 0.00 0.00 0.00 93 1019.2
20260505040027 12 0.0 0.0 0.00 0.00 0.00 91 1019.2
20260505035020 12 0.0 0.0 0.00 0.00 0.00 91 1019.2
20260505034016 12 0.0 0.0 0.00 0.00 0.00 91 1019.1
20260505033028 12 0.0 0.0 0.00 0.00 0.00 89 1019.2
20260505032027 13 0.0 0.0 0.00 0.00 0.00 88 1019.2
20260505031027 13 0.0 0.0 0.00 0.00 0.00 87 1019.2
20260505030027 13 0.0 0.0 0.00 0.00 0.00 86 1019.2
20260505025022 13 0.0 0.0 0.00 0.00 0.00 86 1019.1
20260505024016 13 0.0 0.0 0.00 0.00 0.00 85 1019.0
20260505023033 14 0.0 0.0 0.00 0.00 0.00 84 1019.0
20260505022032 14 0.0 0.0 0.00 0.00 0.00 81 1018.9
20260505021033 15 0.0 0.0 0.00 0.00 0.00 79 1018.9
20260505020022 15 0.0 0.0 0.00 0.00 0.00 79 1018.9
20260505015021 15 0.0 0.0 0.00 0.00 0.00 78 1018.9
20260505014021 15 0.0 0.0 0.00 0.00 0.00 75 1018.8
20260505013021 15 0.0 0.0 0.00 0.00 0.00 74 1018.8
20260505012026 15 0.0 0.0 0.00 0.00 0.00 76 1018.7
20260505011019 16 0.0 0.0 0.00 0.00 0.00 73 1018.6
20260505010026 16 0.0 0.0 0.00 0.00 0.00 73 1018.6
20260505005025 16 0.0 0.0 0.00 0.00 0.00 72 1018.6